Погода на Боракае

Филиппины     11˚57′02″N   121˚56′04″E
темп.,
°C
ветер,
м/с
пор.,
м/с
влажн.,
%
обл.,
%
осадки,
мм/ч
давл.,
гПа
погр.,
м
16 января, сб
сб1623:00+27˚ссв10128597 0.6 1008783
02:00+26˚ссв9128486 1.1 1007823
05:00+26˚ссв9118437 0.4 1006843
08:00+26˚ссв10138233 0.6 1009900
11:00+26˚ссв101382100 1.9 10081020
14:00+27˚ссв91278100 2.3 10071119
17:00+27˚ссв101377100 0.1 10061041
20:00+26˚ссв101377100 0.1 10091027
17 января, вс
вс1723:00+26˚ссв101279100 0.1 1008935
02:00+26˚ссв81181100 0.2 1008899
05:00+26˚ссв81185100 0.3 1007816
08:00+26˚ссв91286100 0.7 1009749
11:00+27˚ссв81084100 0.6 1009726
14:00+27˚ссв7984100 1.8 1007574
17:00+27˚ссв81183100 1.6 1006590
20:00+27˚св898385 5.1 1009502
18 января, пн
пн1823:00+27˚всв7982100 1.7 1010740
02:00+27˚св8983100 2.0 1008839
05:00+26˚св91083100 0.6 1008895
08:00+26˚св10128394 1.0 1010910
11:00+27˚св111282100 0.2 1010945
14:00+27˚св111281100 0.8 1008840
17:00+26˚св101280100 2.3 1008965
20:00+26˚св101183100 3.6 1009805
19 января, вт
вт1923:00+26˚св101182100 1.3 1010950
02:00+26˚св81078100 1.8 1008942
05:00+26˚св91186100 3.9 1008784
08:00+25˚св111288100 4.7 1009768
11:00+26˚всв7986100 1.8 1009780
14:00+26˚всв6780100 2.2 1007831
17:00+27˚всв101180100 0.4 1008985
20:00+26˚всв111381100 1.8 1010867
20 января, ср
ср2023:00+26˚всв7880100 0.1 1009813
02:00+26˚св9981100 0.3 1007823
05:00+25˚св111289100 2.5 1007702
08:00+26˚св121488100 3.9 1008890
11:00+26˚всв141790100 4.4 10091052
14:00+26˚в141687100 9.8 1006938
17:00+26˚в111485100 1.6 1007766
20:00+26˚всв7985100 4.4 1008701